N1BSO Weather Reports


time (UTC)temp
C
wind
direction
speed
KPH
gust
KPH
rain 1hr
cm
rain 24hr
cm
rain mn
cm
humidity
%
barometer
mb
20260507203110 18 301 1.6 14.5 0.00 0.91 0.66 32 1004.4
20260507201600 18 302 4.8 16.1 0.00 0.91 0.66 32 1004.4
20260507200107 18 276 8.0 17.7 0.00 0.91 0.66 36 1004.4
20260507194556 18 261 4.8 16.1 0.00 0.91 0.66 37 1004.5
20260507193058 18 309 3.2 17.7 0.00 0.91 0.66 41 1004.7
20260507191602 18 281 4.8 16.1 0.00 0.91 0.66 39 1004.8
20260507190105 18 262 3.2 16.1 0.00 0.91 0.66 45 1005.0
20260507184600 18 229 4.8 22.5 0.00 0.91 0.66 41 1005.1
20260507183101 18 161 4.8 16.1 0.00 0.91 0.66 43 1005.2
20260507181601 17 344 6.4 19.3 0.00 0.91 0.66 48 1005.3
20260507180054 17 246 1.6 22.5 0.00 0.91 0.66 50 1005.5
20260507174557 17 304 6.4 17.7 0.00 0.91 0.66 51 1005.5
20260507173105 17 326 6.4 22.5 0.00 0.91 0.66 53 1005.6
20260507171555 17 321 6.4 17.7 0.00 0.91 0.66 57 1005.7
20260507164600 16 218 1.6 12.9 0.00 0.91 0.66 57 1006.1
20260507163054 16 344 1.6 11.3 0.00 0.91 0.66 60 1006.1
20260507161556 16 249 4.8 12.9 0.00 0.91 0.66 59 1006.1
20260507160057 16 210 4.8 12.9 0.00 0.91 0.66 60 1006.6
20260507154558 16 185 3.2 11.3 0.00 0.91 0.66 62 1006.7
20260507153101 15 0 1.6 11.3 0.00 0.91 0.66 63 1006.9
20260507151554 15 209 1.6 8.0 0.00 0.91 0.66 66 1006.9
20260507150057 15 25 3.2 9.7 0.00 0.91 0.66 64 1007.2
20260507144556 14 0 0.0 4.8 0.00 0.91 0.66 65 1007.3
20260507143105 13 38 1.6 6.4 0.00 0.91 0.66 67 1007.3
20260507141555 12 91 1.6 11.3 0.00 0.91 0.66 77 1007.5
20260507140057 11 344 3.2 16.1 0.00 0.91 0.66 83 1007.6
20260507134600 11 332 3.2 6.4 0.00 0.91 0.66 89 1007.4
20260507133133 10 0 0.0 12.9 0.00 0.91 0.66 91 1007.7
20260507131556 10 326 1.6 8.0 0.00 0.91 0.66 94 1007.8
20260507130107 10 0 1.6 9.7 0.00 0.91 0.66 95 1007.5
20260507124557 10 319 1.6 4.8 0.03 0.91 0.66 95 1007.6
20260507123056 9 274 1.6 9.7 0.05 0.91 0.66 95 1008.0
20260507121611 9 0 0.0 3.2 0.05 0.91 0.66 96 1007.7
20260507120100 8 0 0.0 3.2 0.08 0.91 0.66 95 1007.6
20260507114635 8 0 0.0 4.8 0.05 0.89 0.64 95 1007.3
20260507113056 8 222 0.0 3.2 0.05 0.86 0.61 95 1007.4
20260507111602 8 0 0.0 0.0 0.08 0.86 0.61 95 1007.5
20260507110059 8 0 0.0 3.2 0.08 0.84 0.58 95 1007.3
20260507104554 8 0 0.0 4.8 0.08 0.84 0.58 95 1007.3
20260507103055 9 290 1.6 11.3 0.05 0.81 0.56 94 1007.6
20260507101613 9 304 0.0 4.8 0.05 0.79 0.53 95 1007.5
20260507094605 10 282 0.0 4.8 0.05 0.76 0.51 94 1006.9
20260507093055 10 262 0.0 6.4 0.08 0.76 0.51 94 1006.7
20260507091557 10 231 1.6 11.3 0.18 0.74 0.48 94 1007.0
20260507090054 11 331 3.2 16.1 0.33 0.74 0.48 94 1006.4
20260507084602 11 318 1.6 8.0 0.46 0.71 0.46 95 1006.1
20260507083057 12 0 0.0 4.8 0.43 0.69 0.43 95 1006.2
20260507081554 12 287 1.6 9.7 0.30 0.56 0.30 95 1006.2
20260507080117 12 298 1.6 11.3 0.15 0.41 0.15 95 1006.3
20260507074558 13 309 0.0 6.4 0.00 0.25 0.00 96 1005.8
20260507073105 13 0 0.0 1.6 0.00 0.25 0.00 96 1005.1
20260507071556 13 272 0.0 6.4 0.00 0.25 0.00 96 1005.2
20260507070056 13 0 0.0 1.6 0.00 0.25 0.00 96 1005.3
20260507064600 13 0 0.0 1.6 0.00 0.25 0.00 96 1005.3
20260507063105 13 0 0.0 3.2 0.00 0.25 0.00 96 1005.3
20260507061558 13 192 1.6 4.8 0.00 0.25 0.00 96 1005.6
20260507060056 13 0 1.6 6.4 0.00 0.25 0.00 96 1005.8
20260507054557 13 292 0.0 8.0 0.00 0.25 0.00 96 1005.7
20260507053108 13 259 0.0 6.4 0.00 0.25 0.00 96 1005.8
20260507051557 13 247 3.2 9.7 0.00 0.25 0.00 96 1006.0
20260507050058 13 319 0.0 12.9 0.00 0.25 0.00 96 1006.5
20260507044608 13 313 1.6 9.7 0.00 0.25 0.00 96 1006.1
20260507043058 13 217 3.2 11.3 0.00 0.25 0.00 96 1006.1
20260507041559 13 256 1.6 12.9 0.00 0.25 0.00 96 1006.2
20260507034559 13 290 1.6 17.7 0.00 0.25 0.25 95 1006.5
20260507033109 13 211 3.2 12.9 0.00 0.25 0.25 95 1006.5
20260507031559 13 232 4.8 17.7 0.00 0.25 0.25 95 1006.4
20260507024605 13 140 4.8 19.3 0.00 0.25 0.25 95 1005.9
20260507023054 13 167 6.4 16.1 0.00 0.25 0.25 95 1006.1
20260507021556 13 0 4.8 12.9 0.00 0.25 0.25 95 1006.2
20260507020112 13 180 6.4 17.7 0.00 0.25 0.25 95 1006.5
20260507014605 13 257 3.2 16.1 0.00 0.25 0.25 95 1006.6
20260507013058 13 165 4.8 16.1 0.03 0.25 0.25 95 1006.7
20260507011556 13 290 4.8 16.1 0.03 0.25 0.25 95 1006.9
20260507004602 13 259 6.4 17.7 0.05 0.25 0.25 95 1006.8
20260507003055 13 205 4.8 27.4 0.03 0.23 0.23 94 1006.9
20260507001556 13 304 8.0 32.2 0.08 0.23 0.23 95 1006.7
20260507000056 13 346 4.8 29.0 0.13 0.23 0.23 95 1006.9
20260506234555 13 178 6.4 16.1 0.13 0.20 0.20 94 1006.7
20260506233111 13 212 4.8 19.3 0.15 0.20 0.20 94 1006.8
20260506231600 13 204 6.4 17.7 0.10 0.15 0.15 93 1007.0
20260506230056 14 179 4.8 19.3 0.05 0.10 0.10 93 1006.7
20260506224600 14 257 4.8 22.5 0.03 0.08 0.08 92 1006.8
20260506223057 15 231 8.0 25.7 0.00 0.05 0.05 91 1007.3
20260506221611 15 156 4.8 32.2 0.00 0.05 0.05 91 1007.2
20260506220056 15 173 4.8 19.3 0.00 0.05 0.05 91 1007.2
20260506214557 15 243 3.2 17.7 0.03 0.05 0.05 91 1007.3
20260506213115 15 138 3.2 22.5 0.03 0.05 0.05 89 1007.3
20260506211558 16 233 4.8 19.3 0.03 0.05 0.05 88 1007.8
20260506210058 15 212 6.4 29.0 0.05 0.05 0.05 88 1007.5
20260506204556 15 194 6.4 30.6 0.03 0.03 0.03 89 1007.6